TimeCDT,TemperatureF,Dew PointF,Humidity,Sea Level PressureIn,VisibilityMPH,Wind Direction,Wind SpeedMPH,Gust SpeedMPH,PrecipitationIn,Events,Conditions,WindDirDegrees,DateUTC
12:53 AM,75.9,72.0,87,29.99,10.0,Calm,Calm,-,N/A,,Clear,0,2013-06-26 05:53:00
1:53 AM,75.9,72.0,87,29.98,10.0,South,3.5,-,N/A,,Clear,170,2013-06-26 06:53:00
2:53 AM,75.0,72.0,90,29.98,10.0,Calm,Calm,-,N/A,,Clear,0,2013-06-26 07:53:00
3:53 AM,73.0,71.1,93,29.98,3.0,Calm,Calm,-,N/A,,Clear,0,2013-06-26 08:53:00
4:53 AM,73.0,70.0,90,29.98,6.0,Calm,Calm,-,N/A,,Clear,0,2013-06-26 09:53:00
5:53 AM,73.9,72.0,93,29.99,1.5,Calm,Calm,-,N/A,,Clear,0,2013-06-26 10:53:00
6:07 AM,71.6,69.8,94,30.00,4.0,Calm,Calm,-,N/A,,Clear,0,2013-06-26 11:07:00
6:53 AM,73.9,71.1,91,30.01,5.0,Calm,Calm,-,N/A,,Partly Cloudy,0,2013-06-26 11:53:00
7:53 AM,79.0,75.0,88,30.03,10.0,Calm,Calm,-,N/A,,Clear,0,2013-06-26 12:53:00
8:53 AM,84.0,75.9,76,30.04,10.0,SW,5.8,-,N/A,,Clear,220,2013-06-26 13:53:00
9:41 AM,84.2,75.2,74,30.05,10.0,WSW,10.4,-,N/A,,Mostly Cloudy,240,2013-06-26 14:41:00
9:53 AM,86.0,75.0,70,30.04,10.0,SW,9.2,-,N/A,,Scattered Clouds,220,2013-06-26 14:53:00
10:53 AM,89.1,73.9,61,30.04,10.0,WSW,8.1,-,N/A,,Clear,240,2013-06-26 15:53:00
11:53 AM,91.0,73.9,57,30.04,10.0,WSW,9.2,-,N/A,,Scattered Clouds,250,2013-06-26 16:53:00
12:53 PM,91.9,73.0,54,30.03,10.0,South,8.1,-,N/A,,Scattered Clouds,190,2013-06-26 17:53:00
1:53 PM,93.0,72.0,50,30.01,10.0,Calm,Calm,-,N/A,,Partly Cloudy,0,2013-06-26 18:53:00
2:53 PM,93.9,73.0,51,29.98,10.0,SSW,6.9,-,N/A,,Clear,200,2013-06-26 19:53:00
3:53 PM,93.9,72.0,49,29.97,10.0,SSW,5.8,-,N/A,,Partly Cloudy,200,2013-06-26 20:53:00
4:53 PM,93.0,72.0,50,29.95,10.0,SSE,5.8,-,N/A,,Partly Cloudy,150,2013-06-26 21:53:00
5:53 PM,93.0,73.9,54,29.94,10.0,SSW,5.8,-,N/A,,Clear,200,2013-06-26 22:53:00
6:53 PM,91.0,73.9,57,29.94,10.0,South,4.6,-,N/A,,Clear,190,2013-06-26 23:53:00
7:53 PM,88.0,75.9,67,29.94,10.0,Calm,Calm,-,N/A,,Clear,0,2013-06-27 00:53:00
8:53 PM,82.0,77.0,85,29.94,10.0,Calm,Calm,-,N/A,,Clear,0,2013-06-27 01:53:00
9:53 PM,80.1,75.9,87,29.95,10.0,Calm,Calm,-,N/A,,Clear,0,2013-06-27 02:53:00
10:53 PM,78.1,75.0,90,29.97,10.0,Calm,Calm,-,N/A,,Clear,0,2013-06-27 03:53:00
11:53 PM,79.0,73.9,84,29.97,10.0,SW,4.6,-,N/A,,Clear,230,2013-06-27 04:53:00